AUA9PV LOWW-EPWA

Flight info

Callsign AUA9PV
Flight time N/A
Altitude 35000
Route KOXER Z649 XENAK M985 NIT DCT MEBAN DCT ORTEB DCT KONZI DCT LOGDA
Aircraft A320/M-SDE3FGHIRWY/LB1

Departure

Time 2026-04-22 21:45
Airport Vienna International Airport (LOWW)

Arrival

Time N/A
Airport Warsaw Chopin Airport (EPWA)
Time Latitude Longitude Altitude Speed Heading
2026-04-22 21:16 48.11691 16.56845 610 ft 0 kts 25°
2026-04-22 21:37 48.11676 16.56834 605 ft 4 kts 28°
2026-04-22 21:37 48.11653 16.56814 624 ft 4 kts 37°
2026-04-22 21:37 48.11634 16.56787 617 ft 4 kts 63°
2026-04-22 21:38 48.11631 16.56759 627 ft 1 kts 116°
2026-04-22 21:40 48.11628 16.56769 618 ft 4 kts 116°
2026-04-22 21:40 48.11609 16.56827 614 ft 9 kts 116°
2026-04-22 21:40 48.11573 16.56934 614 ft 14 kts 116°
2026-04-22 21:41 48.11535 16.57050 618 ft 14 kts 116°
2026-04-22 21:41 48.11483 16.57204 621 ft 19 kts 117°
2026-04-22 21:41 48.11424 16.57363 621 ft 15 kts 129°
2026-04-22 21:41 48.11322 16.57341 619 ft 18 kts 208°
2026-04-22 21:42 48.11221 16.57282 611 ft 13 kts 170°
2026-04-22 21:42 48.11172 16.57383 612 ft 11 kts 114°
2026-04-22 21:42 48.11141 16.57483 619 ft 10 kts 115°
2026-04-22 21:42 48.11113 16.57570 616 ft 8 kts 115°
2026-04-22 21:43 48.11089 16.57641 615 ft 7 kts 126°
2026-04-22 21:43 48.11051 16.57648 622 ft 5 kts 199°
2026-04-22 21:43 48.11022 16.57628 616 ft 4 kts 204°
2026-04-22 21:43 48.11001 16.57614 611 ft 3 kts 204°
2026-04-22 21:44 48.10973 16.57595 617 ft 7 kts 204°
2026-04-22 21:44 48.10923 16.57527 615 ft 13 kts 258°
2026-04-22 21:44 48.10941 16.57447 622 ft 0 kts 296°
2026-04-22 21:44 48.11019 16.57216 615 ft 61 kts 296°
2026-04-22 21:45 48.11300 16.56342 618 ft 123 kts 294°
2026-04-22 21:45 48.11747 16.54976 693 ft 160 kts 298°
2026-04-22 21:45 48.12240 16.53526 1339 ft 159 kts 300°
2026-04-22 21:45 48.12529 16.51938 1990 ft 169 kts 267°
2026-04-22 21:46 48.11895 16.50317 2283 ft 202 kts 218°
2026-04-22 21:46 48.10515 16.49475 2578 ft 226 kts 194°
2026-04-22 21:46 48.08938 16.49020 3129 ft 234 kts 190°
2026-04-22 21:46 48.07327 16.48608 3757 ft 237 kts 190°
2026-04-22 21:47 48.05680 16.48693 4435 ft 239 kts 161°
2026-04-22 21:47 48.04142 16.49810 4876 ft 256 kts 142°
2026-04-22 21:47 48.02593 16.51363 5264 ft 279 kts 144°
2026-04-22 21:47 48.00923 16.52949 5988 ft 288 kts 145°
2026-04-22 21:48 47.99209 16.54537 6823 ft 292 kts 144°
2026-04-22 21:48 47.97683 16.56508 7619 ft 290 kts 124°
2026-04-22 21:48 47.96712 16.59091 8463 ft 285 kts 104°
2026-04-22 21:48 47.96390 16.61966 9312 ft 280 kts 84°
2026-04-22 21:49 47.96712 16.64794 10156 ft 276 kts 67°
2026-04-22 21:49 47.97349 16.67510 10854 ft 282 kts 66°
2026-04-22 21:49 47.98024 16.70386 11092 ft 305 kts 67°
2026-04-22 21:49 47.98749 16.73487 11315 ft 326 kts 68°
2026-04-22 21:50 47.99544 16.76706 11891 ft 332 kts 62°
2026-04-22 21:50 48.00714 16.79683 12604 ft 333 kts 52°
2026-04-22 21:50 48.02063 16.82495 13362 ft 335 kts 52°
2026-04-22 21:50 48.03427 16.85333 14080 ft 338 kts 52°
2026-04-22 21:51 48.04801 16.88193 14717 ft 340 kts 52°
2026-04-22 21:51 48.06166 16.91039 15348 ft 342 kts 52°
2026-04-22 21:51 48.07552 16.93940 15993 ft 344 kts 53°
2026-04-22 21:52 48.10344 16.99793 17303 ft 347 kts 53°
2026-04-22 21:52 48.11569 17.02922 17945 ft 351 kts 64°
2026-04-22 21:52 48.12330 17.06417 18569 ft 357 kts 76°
2026-04-22 21:52 48.12575 17.10134 19130 ft 363 kts 87°
2026-04-22 21:53 48.12459 17.13921 19703 ft 365 kts 89°
2026-04-22 21:53 48.12335 17.17723 20273 ft 366 kts 89°
2026-04-22 21:53 48.12211 17.21540 20851 ft 368 kts 89°
2026-04-22 21:53 48.12088 17.25363 21403 ft 369 kts 89°
2026-04-22 21:54 48.12156 17.29193 21947 ft 368 kts 80°
2026-04-22 21:54 48.12676 17.32935 22478 ft 366 kts 71°
2026-04-22 21:54 48.13529 17.36532 22993 ft 367 kts 69°
2026-04-22 21:54 48.14407 17.40133 23489 ft 369 kts 69°
2026-04-22 21:55 48.15289 17.43751 23938 ft 371 kts 69°
2026-04-22 21:55 48.16171 17.47396 24333 ft 372 kts 69°
2026-04-22 21:55 48.17040 17.51001 24712 ft 374 kts 69°
2026-04-22 21:55 48.17921 17.54673 25065 ft 375 kts 69°
2026-04-22 21:56 48.18783 17.58376 25415 ft 377 kts 70°
2026-04-22 21:56 48.19620 17.62112 25767 ft 379 kts 70°
2026-04-22 21:56 48.20449 17.65872 26118 ft 381 kts 71°
2026-04-22 21:56 48.21276 17.69652 26459 ft 382 kts 71°
2026-04-22 21:57 48.22106 17.73449 26789 ft 384 kts 71°
2026-04-22 21:57 48.22946 17.77269 27115 ft 386 kts 71°
2026-04-22 21:57 48.23791 17.81096 27436 ft 387 kts 71°
2026-04-22 21:57 48.24638 17.84939 27769 ft 389 kts 71°
2026-04-22 21:58 48.25480 17.88756 28071 ft 390 kts 71°
2026-04-22 21:58 48.26330 17.92625 28369 ft 392 kts 71°
2026-04-22 21:58 48.27186 17.96518 28655 ft 393 kts 71°
2026-04-22 21:58 48.28078 18.00418 28931 ft 395 kts 67°
2026-04-22 21:59 48.29318 18.04099 29193 ft 397 kts 58°
2026-04-22 21:59 48.30975 18.07424 29447 ft 400 kts 50°
2026-04-22 21:59 48.33000 18.10319 29664 ft 404 kts 44°
2026-04-22 21:59 48.35114 18.13111 29880 ft 405 kts 44°
2026-04-22 22:00 48.37235 18.15920 30107 ft 407 kts 44°
2026-04-22 22:00 48.39356 18.18743 30371 ft 407 kts 44°
2026-04-22 22:00 48.41474 18.21568 30649 ft 405 kts 44°
2026-04-22 22:00 48.43581 18.24379 30924 ft 404 kts 44°
2026-04-22 22:01 48.45681 18.27186 31193 ft 403 kts 44°
2026-04-22 22:01 48.47770 18.29993 31466 ft 402 kts 45°
2026-04-22 22:01 48.49852 18.32796 31728 ft 401 kts 45°
2026-04-22 22:01 48.51928 18.35585 32026 ft 399 kts 45°
2026-04-22 22:02 48.53967 18.38322 32332 ft 397 kts 45°
2026-04-22 22:02 48.56023 18.41085 32626 ft 395 kts 45°
2026-04-22 22:02 48.58068 18.43840 32920 ft 393 kts 45°
2026-04-22 22:02 48.60105 18.46585 33208 ft 392 kts 45°
2026-04-22 22:03 48.62138 18.49327 33498 ft 390 kts 45°
2026-04-22 22:03 48.64156 18.52057 33791 ft 388 kts 46°
2026-04-22 22:03 48.66158 18.54774 34091 ft 387 kts 46°
2026-04-22 22:03 48.68158 18.57487 34345 ft 386 kts 46°
2026-04-22 22:04 48.70153 18.60193 34555 ft 385 kts 45°
2026-04-22 22:04 48.72147 18.62901 34747 ft 385 kts 45°
2026-04-22 22:04 48.74154 18.65630 34904 ft 387 kts 45°
2026-04-22 22:04 48.76157 18.68360 35063 ft 387 kts 45°
2026-04-22 22:05 48.78165 18.71101 35170 ft 389 kts 45°
2026-04-22 22:05 48.82198 18.76599 35193 ft 390 kts 45°
2026-04-22 22:06 48.86233 18.82108 35192 ft 390 kts 45°
2026-04-22 22:06 48.90256 18.87626 35195 ft 389 kts 45°